Weather History for KCFV - October, 2011

Change the Weather History Date:

Tuesday, October 11, 2011

  Actual Average Record
Temperature  
Mean Temperature 66 °F -  
Max Temperature 79 °F 71 °F 84 °F (1999)
Min Temperature 53 °F 46 °F 42 °F (1996)
Growing Degree Days 16 (Base 50)    
Moisture  
Dew Point 57 °F    
Average Humidity 85    
Maximum Humidity 100    
Minimum Humidity 52    
Precipitation  
Precipitation 0.01 in - - ()
Sea Level Pressure  
Sea Level Pressure 29.93 in    
Wind  
Wind Speed 2 mph (SSE)    
Max Wind Speed 13 mph    
Max Gust Speed -    
Visibility 6 miles    
Events Fog    
Averages and records for this station are not official NWS values.
T = Trace of Precipitation, MM = Missing Value Source: NWS Daily Summary

Daily Weather History Graph

Daily Weather History Graph

Search for Another Location

Airport or City:

Trip Planner

Search our weather history database for the weather conditions in past years. The results will help you decide how hot, cold, wet, or windy it might be!

Date:

Astronomy

Oct. 11, 2011 Rise Set
Actual Time 7:26 AM CDT 6:51 PM CDT
Civil Twilight 7:00 AM CDT 7:17 PM CDT
Nautical Twilight 6:29 AM CDT 7:47 PM CDT
Astronomical Twilight 5:59 AM CDT 8:17 PM CDT
Moon 6:25 PM CDT (10/11) 7:04 AM CDT (10/11)
Length of Visible Light 12h 17m
Length of Day
11h 25m
Full, 100% of the Moon is Illuminated
Oct 11
Full
Oct 11
Full
Oct 19
Last Quarter
Oct 26
New
Nov 2
First Quarter

Hourly Weather History & Observations

Time (CDT) Temp. Dew Point Humidity Pressure Visibility Wind Dir Wind Speed Gust Speed Precip Events Conditions
12:52 AM 55.9 °F 54.0 °F 93% 29.99 in 7.0 mi Calm Calm - 0.01 in   Clear
1:52 AM 55.0 °F 53.1 °F 93% 29.97 in 6.0 mi Calm Calm - N/A   Clear
2:18 AM 55.4 °F 53.6 °F 94% 29.98 in 2.5 mi Calm Calm - N/A   Clear
2:25 AM 55.4 °F 53.6 °F 94% 29.98 in 5.0 mi Calm Calm - N/A   Clear
2:52 AM 54.0 °F 52.0 °F 93% 29.96 in 5.0 mi SE 3.5 mph - N/A   Clear
3:43 AM 53.6 °F 51.8 °F 94% 29.97 in 1.8 mi Calm Calm - N/A   Clear
3:50 AM 55.4 °F 53.6 °F 94% 29.97 in 3.0 mi Calm Calm - N/A   Clear
3:52 AM 55.0 °F 54.0 °F 96% 29.96 in 4.0 mi Calm Calm - N/A   Clear
4:42 AM 53.6 °F 51.8 °F 94% 29.96 in 5.0 mi Calm Calm - N/A   Scattered Clouds
4:50 AM 53.6 °F 51.8 °F 94% 29.96 in 4.0 mi Calm Calm - N/A   Mostly Cloudy
4:52 AM 53.1 °F 52.0 °F 96% 29.96 in 4.0 mi Calm Calm - N/A   Mostly Cloudy
4:54 AM 53.6 °F 51.8 °F 94% 29.96 in 1.2 mi Calm Calm - N/A   Mostly Cloudy
5:08 AM 53.6 °F 51.8 °F 94% 29.97 in 0.2 mi Calm Calm - N/A Fog Fog
6:52 AM 55.0 °F 54.0 °F 96% 29.97 in 0.2 mi Calm Calm - N/A Fog Fog
7:52 AM 55.0 °F 54.0 °F 96% 29.96 in 0.2 mi Calm Calm - N/A Fog Fog
9:32 AM 59.0 °F 57.2 °F 94% 29.98 in 2.0 mi Calm Calm - N/A   Overcast
9:40 AM 60.8 °F 57.2 °F 88% 29.97 in 4.0 mi Calm Calm - N/A   Overcast
9:52 AM 61.0 °F 59.0 °F 93% 29.97 in 4.0 mi Calm Calm - N/A   Mostly Cloudy
10:07 AM 60.8 °F 60.8 °F 100% 29.97 in 6.0 mi Calm Calm - N/A   Mostly Cloudy
11:47 AM 71.6 °F 60.8 °F 69% 29.95 in 10.0 mi South 5.8 mph - N/A   Scattered Clouds
11:52 AM 71.1 °F 61.0 °F 70% 29.94 in 10.0 mi Variable 4.6 mph - N/A   Partly Cloudy
12:41 PM 73.4 °F 60.8 °F 65% 29.93 in 10.0 mi South 8.1 mph - N/A   Mostly Cloudy
12:52 PM 73.9 °F 61.0 °F 64% 29.91 in 10.0 mi South 8.1 mph - N/A   Mostly Cloudy
1:02 PM 73.4 °F 60.8 °F 65% 29.92 in 10.0 mi SSW 8.1 mph - N/A   Scattered Clouds
1:52 PM 75.9 °F 60.1 °F 58% 29.88 in 10.0 mi South 12.7 mph - N/A   Partly Cloudy
3:52 PM 78.1 °F 59.0 °F 52% 29.82 in 10.0 mi South 9.2 mph - N/A   Partly Cloudy
5:52 PM 73.9 °F 60.1 °F 62% 29.81 in 10.0 mi SSE 6.9 mph - N/A   Partly Cloudy
6:52 PM 72.0 °F 60.1 °F 66% 29.81 in 10.0 mi SSE 5.8 mph - N/A   Clear
8:52 PM 66.0 °F 61.0 °F 84% 29.82 in 10.0 mi SE 4.6 mph - N/A   Clear
9:52 PM 66.0 °F 61.0 °F 84% 29.81 in 10.0 mi SE 5.8 mph - N/A   Scattered Clouds
10:52 PM 66.0 °F 62.1 °F 87% 29.81 in 10.0 mi SE 5.8 mph - N/A   Scattered Clouds
11:52 PM 64.9 °F 62.1 °F 90% 29.81 in 9.0 mi Calm Calm - N/A   Clear